Location: Peterborough
(44.3091°N, 78.3197°W)
Time: 03:42:53
(UTC-04:00)

S-56A Canister/Altair - Pass Details

Date: 31 March 2023
Orbit: 639 x 2492 km, 38.9° (Epoch: 08 June)

Event Time Altitude Azimuth Distance (km) Brightness Sun altitude
Rises 18:36:07 0° 237° (WSW) 4,303 12.5 10.4°
Reaches altitude 10° 18:38:42 10° 233° (SW) 3,552 12.0 9.9°
Maximum altitude 18:47:55 56° 158° (SSE) 2,173 9.8 8.3°
Drops below altitude 10° 19:01:04 10° 86° (E) 4,956 11.0 6.0°
Sets 19:05:21 0° 83° (E) 6,089 11.4 5.2°
